#timestamp,LO_Frequency,Hit,StdDev 
1594270815.6,286046997.0,N
1594270835.5,286046999.9,N
1594270855.3,286047001.5,N
1594270875.2,286047005.1,N
1594270895.9,286047008.2,N
1594270915.7,286047008.4,N
1594270935.6,286047008.4,N
1594270955.4,286047008.5,N
1594270975.2,286047008.4,N
1594270995.1,286047006.4,N
1594270996.0,286047006.4,N
1594271015.8,286047006.8,N
1594271035.7,286047003.5,N
1594271055.5,286047000.0,N
1594271075.3,286047001.1,N
1594271095.2,286046997.3,N
1594271115.9,286046996.5,N
1594271135.7,286047011.9,N
1594271155.6,286046996.3,N
1594271175.4,286046995.7,N
1594271195.3,286046995.2,N
1594271215.1,286046994.1,N
1594271216.0,286046994.1,N
1594271235.8,286046998.3,N
1594271255.7,286047006.8,N
1594271275.5,286047008.8,N
1594271295.3,286047011.1,N
1594271315.2,286047019.5,Y
1594271335.0,286047019.3,P
1594271335.9,286047019.3,N
1594271355.8,286047019.5,N
1594271375.6,286047017.4,N
1594271395.4,286047018.7,N
1594271415.3,286047011.6,N
1594271435.1,286047009.5,N
1594271455.8,286047009.0,N
1594271475.7,286047005.1,N
1594271495.5,286047002.9,N
1594271515.4,286047006.0,N
1594271535.2,286047001.5,N
1594271555.0,286047003.6,N
1594271555.9,286047003.6,N
1594271575.8,286047004.1,N
1594271595.6,286046998.3,N
1594271615.4,286046999.3,N
1594271635.3,286046996.5,N
1594271655.1,286046999.3,N
1594271675.9,286046998.1,N
1594271695.7,286046998.5,N
1594271715.5,286047002.0,N
1594271735.4,286046998.8,N
1594271755.2,286046999.4,N
1594271775.0,286046999.1,N
1594271775.9,286046999.1,N
1594271795.8,286047001.1,N
1594271815.6,286047001.9,N
1594271835.5,286047004.3,N
1594271855.3,286046999.9,N
1594271875.1,286047000.5,N
1594271895.9,286046996.9,N
1594271915.7,286046998.9,N
1594271935.5,286047000.0,N
1594271955.4,286047000.1,N
1594271975.2,286047002.2,N
1594271995.0,286046998.9,N
1594271996.0,286046998.9,N
1594272015.8,286046998.1,N
1594272035.6,286046994.3,N
1594272055.5,286046995.9,N
1594272075.3,286046998.7,N
1594272095.1,286046996.7,N
1594272115.9,286046995.4,N
1594272135.7,286046995.3,N
1594272155.6,286046995.0,N
1594272175.4,286046994.4,N
1594272195.2,286046992.7,Y
1594272215.1,286046997.4,P
1594272216.0,286046997.4,P
1594272235.8,286046995.5,P
1594272255.7,286046999.6,N
1594272275.5,286046999.4,N
1594272295.3,286046992.0,Y
1594272315.2,286046992.3,P
1594272335.0,286046992.7,N
1594272335.9,286046992.7,N
1594272355.8,286046987.0,Y
1594272375.6,286046991.9,P
1594272395.4,286046996.2,P
1594272415.3,286046999.0,N
1594272435.1,286046998.4,N
1594272455.9,286047001.2,N
1594272475.4,286046998.4,N
1594272495.2,286046996.6,N
1594272515.1,286047001.2,N
1594272516.0,286047001.2,N
1594272535.8,286046998.3,N
1594272555.7,286046999.4,N
1594272575.5,286046994.9,N
1594272595.3,286046995.2,N
1594272615.2,286046995.7,N
1594272635.0,286046996.3,N
1594272635.9,286046996.3,N
1594272655.8,286046993.7,N
1594272675.6,286046994.5,N
1594272695.4,286046995.0,N
1594272715.3,286046998.0,N
1594272735.1,286046990.8,Y
1594272755.8,286046996.4,P
1594272775.7,286046995.1,P
1594272795.5,286046997.8,N
1594272815.4,286046994.8,Y
1594272835.2,286046997.0,P
1594272855.0,286046998.2,P
1594272855.9,286046998.2,N
1594272875.8,286046998.5,N
1594272895.6,286046999.5,N
1594272915.4,286046999.1,N
1594272935.3,286046998.6,N
1594272955.1,286046996.9,Y
1594272975.9,286046998.4,P
1594272995.7,286047011.9,P
1594273015.5,286047001.5,N
1594273035.4,286047002.2,N
1594273055.2,286047002.9,N
1594273075.0,286047001.1,N
1594273075.9,286047001.1,N
1594273095.8,286047003.9,N
1594273115.6,286046997.7,N
1594273135.5,286046998.1,N
1594273155.3,286046999.2,N
1594273175.1,286046996.8,N
1594273195.9,286046996.7,N
1594273215.7,286046996.9,N
1594273235.5,286046999.8,N
1594273255.4,286047006.3,N
1594273275.2,286047006.1,N
1594273295.1,286047010.4,N
1594273296.0,286047010.4,N
1594273315.8,286047009.2,N
1594273335.6,286047002.7,N
1594273355.5,286047003.3,N
1594273375.3,286046999.2,N
1594273395.1,286046993.3,N
1594273415.9,286046990.6,N
1594273435.7,286046992.3,N
1594273455.6,286046994.3,N
1594273475.4,286046993.3,N
1594273495.2,286046995.7,N
1594273515.1,286046994.1,N
1594273516.0,286046994.1,N
1594273535.8,286046991.4,N
1594273555.7,286046987.4,N
1594273575.5,286046987.9,N
1594273595.3,286046987.1,N
1594273615.2,286046986.0,N
1594273635.0,286046989.1,N
1594273635.9,286046989.1,N
1594273655.7,286046987.1,N
1594273675.6,286046985.5,N
1594273695.4,286046989.6,N
1594273715.3,286046996.2,N
1594273735.1,286046993.0,N
1594273736.0,286046993.0,N
1594273755.8,286046992.3,N
1594273775.7,286046991.3,N
1594273795.5,286046985.6,N
1594273815.3,286046990.6,N
1594273835.2,286046987.3,N
1594273855.0,286046989.4,N
1594273855.9,286046989.4,N
1594273875.8,286046990.0,N
1594273895.6,286046989.6,Y
1594273915.5,286046999.1,P
1594273935.3,286046994.1,N
1594273955.1,286046995.2,N
1594273975.9,286046995.1,N
1594273995.7,286046998.5,N
1594274015.6,286046998.9,N
1594274035.4,286047001.1,N
1594274055.2,286046996.9,N
1594274075.1,286046998.0,N
1594274076.0,286046998.0,N
1594274095.8,286046995.6,N
1594274115.6,286046998.9,N
1594274135.5,286046993.5,N
1594274155.3,286046996.4,N
1594274175.2,286046994.4,N
1594274195.9,286046996.2,N
1594274215.8,286046995.8,N
1594274235.6,286046995.7,N
1594274255.4,286046996.4,N
1594274275.3,286046992.9,Y
1594274295.1,286046998.3,P
1594274315.8,286046997.5,N
1594274335.7,286046997.4,P
1594274355.5,286046996.9,Y
1594274375.4,286046996.9,P
1594274395.2,286046999.0,P
